Regional Weather Roundup
Issued by NWS Upton, NY

Current Version | Previous Version | Text Only | Print | Product List | Glossary On
Versions: 1 2 3 4 5 6 7 8 9 10 11 12 13 14 15 16 17 18 19 20 21 22 23 24 25 26 27
000 ASUS41 KOKX 261708 RWROKX REGIONAL WEATHER ROUNDUP NATIONAL WEATHER SERVICE NEW YORK NY 1200 PM EST SUN FEB 26 2017 NOTE: "FAIR" INDICATES FEW OR NO CLOUDS BELOW 12,000 FEET WITH NO SIGNIFICANT WEATHER AND/OR OBSTRUCTIONS TO VISIBILITY. NYZ071-072-176-178-NJZ106-104-261800- NEW YORK CITY METRO AREA CITY SKY/WX TMP DP RH WIND PRES REMARKS Central Park PTSUNNY 40 16 37 NW8G18 30.04R WCI 34 Wall St Helipt NOT AVBL LaGuardia APRT MOSUNNY 41 15 35 W18G31 30.01R Kennedy INTL PTSUNNY 42 17 36 W17G25 30.03R Breezy Point N/A 39 N/A N/A W14G21 N/A WCI 31 Newark/Liberty MOSUNNY 42 14 32 W23G30 30.03R Teterboro PTSUNNY 42 19 39 NW14G23 30.02R $$ NYZ177-179-078>081-261800- LONG ISLAND NEW YORK CITY SKY/WX TMP DP RH WIND PRES REMARKS Jones Beach N/A 39 N/A N/A NW21G26 N/A WCI 29 Matinecock PT N/A 37 N/A N/A W22G28 N/A WCI 27 Farmingdale MOSUNNY 41 16 36 NW16G25 30.00R MacArthur/ISP MOSUNNY 41 18 39 W21G29 29.98R Shirley MOSUNNY 40 19 43 W21G28 29.98R WCI 30 Westhampton MOSUNNY 41 16 36 NW24G31 29.97S Southampton NOT AVBL Bridgehampton NOT AVBL East Hampton N/A 39 18 42 W17G25 29.94S WCI 30 Montauk NOT AVBL $$ NYZ052-065-067-261800- HUDSON VALLEY CITY SKY/WX TMP DP RH WIND PRES REMARKS White Plains PTSUNNY 37 16 42 NW16G26 29.98R WCI 28 Newburgh NOT AVBL Montgomery CLOUDY 36 19 50 NW15G24 30.00R WCI 27 Poughkeepsie PTSUNNY 36 14 40 NW14G26 29.99R WCI 27 Albany CLOUDY 34 14 43 NW26G36 29.99R WCI 21 $$ NJZ001-105-106-008-010-013-015-019>022-104-261800- NEW JERSEY CITY SKY/WX TMP DP RH WIND PRES REMARKS Newark/Liberty MOSUNNY 42 14 32 W23G30 30.03R Teterboro PTSUNNY 42 19 39 NW14G23 30.02R Caldwell MOSUNNY 40 14 34 NW12G21 30.03R WCI 33 Somerville CLOUDY 38 15 39 NW17G28 30.04R WCI 28 Linden NOT AVBL Sussex CLOUDY 37 15 40 N9 30.01S WCI 30 Andover N/A 35 13 40 W14G21 30.02R WCI 26 Trenton CLOUDY 38 18 44 NW13G21 30.06R WCI 30 Millville MOSUNNY 41 21 44 NW15 30.10R Atlantic City SUNNY 43 18 36 W15 30.07S Wrightstown PTSUNNY 41 17 38 NW16G24 30.04R Toms River PTSUNNY 40 20 44 NW21G26 30.06R WCI 30 Belmar PTSUNNY N/A N/A N/A W20G26 30.04R $$ PAZ047>061-062-071-261800- EASTERN PENNSYLVANIA CITY SKY/WX TMP DP RH WIND PRES REMARKS Philadelphia MOSUNNY 39 15 37 NW16G28 30.10S WCI 30 Allentown CLOUDY 38 18 44 NW12 30.06R WCI 30 Scranton CLOUDY 34 15 46 NW15G22 30.02R WCI 24 $$ CTZ002-004>006-009-010-012-RIZ004-006-007-MAZ004-011-015-261800- SOUTHERN NEW ENGLAND IN CT CITY SKY/WX TMP DP RH WIND PRES REMARKS Bradley INTL PTSUNNY 41 15 35 W22G37 29.93S Hartford PTSUNNY 39 17 41 NW21G28 29.95R WCI 29 Danbury MOSUNNY 37 15 40 NW9G20 29.97R WCI 30 Wtrbury/Oxford PTSUNNY 37 14 38 NW13G24 29.94R WCI 29 Bridgeport SUNNY 43 15 32 W18G30 29.96R Meriden SUNNY 41 15 35 NW16G25 29.95R New Haven MOSUNNY 41 17 38 NW16G23 29.96R Chester N/A 37 14 38 NW16G24 29.92R WCI 28 Groton SUNNY 43 17 35 NW16G25 29.92R Wilimantic MOSUNNY 40 17 39 NW13G18 29.92R WCI 32 IN RI CITY SKY/WX TMP DP RH WIND PRES REMARKS Providence MOSUNNY 42 17 36 W17G30 29.89R Block Island SUNNY 41 19 41 W13G25 29.91R Westerly MOSUNNY 43 15 32 NW10G18 29.91R IN MA CITY SKY/WX TMP DP RH WIND PRES REMARKS Boston MOSUNNY 42 19 39 W21G30 29.82S Worcester PTSUNNY 34 15 46 W22G36 29.82S WCI 22 Westfield MOSUNNY 37 16 42 W15G30 29.91R WCI 28 Provincetown SUNNY 43 25 49 W18G24 29.83R Nantucket SUNNY 43 22 43 W26G33 29.86R $$ ANZ330-335-338-340-345-350-353-355-261800- COASTAL MARINE OBSERVATIONS STATION/POSITION TIME SKY/WX TEMP WIND PRES VSBY WAVE AIR SEA DIR/SP/G HT/PER (UTC) (F) (DEG/KT/KT) (MB) (MI) (FT/S) NY HARB ENTRANCE 1550 38 43 300/ 21/ 23 1015.5 4/11 20 S FIRE ISLAND 1650 38 43 290/ 21/ 27 1015.7 6/ 5 GREAT SOUTH BAY NOT AVBL 23 SSW MONTAUK P 1550 38 44 1013.8 6/10 15 E BARNEGAT LI 1630 44 N/A 5/10 HUDSON CANYON 1550 48 1015.5 8/ 7 KINGS POINT 1648 37 41 1016.2 EXECUTION ROCKS NOT AVBL CENTRAL LI SOUND 1615 38 290/ 19/ 21 N/A 3/ 5 EASTERN LI SOUND NOT AVBL ROBBINS REEF 1648 37 290/ 19/ 25 1016.7 $$ >>>>>>>>>>>>>>>>>>>>>>>>>>>> KEY <<<<<<<<<<<<<<<<<<<<<<<<<<< > < > SKY/WX - Sky Condition/Present Weather < > TMP - Temperature in Fahrenheit < > DP - Dew Point in Fahrenheit < > RH - Relative Humidity in Percent < > WIND - Direction (from) and Speed in MPH < > PRES - Mean Sea Level Pressure (inches of Hg) < > WCI - Wind Chill Index < > VSB - VISIBILITY IN MILES < > HX - HEAT INDEX < > TC - TEMPERATURE IN CELSIUS < > VRB - VARIABLE WIND DIRECTION < > < >>>>>>>>>>>>>>>>>>>>>>>>>>>> KEY <<<<<<<<<<<<<<<<<<<<<<<<<<<

USA.gov is the U.S. government's official web portal to all federal, state and local government web resources and services.